Location: Los Gatos B&B
(42.6926°N, 77.0646°W)
Time: 17:29:57
(UTC-04:00)

Cosmos 2263 Rocket - Visible Passes

Search period start: 16 September 2014 00:00
Search period end: 26 September 2014 00:00
Orbit: 826 x 847 km, 71.0° (Epoch: 16 September)

Date Brightness Start Highest point End Pass type
(mag) Time Alt. Az. Time Alt. Az. Time Alt. Az.
16 Sep 4.9 00:04:35 10° NNE 00:05:09 11° NNE 00:05:09 11° NNE visible
16 Sep 5.0 01:46:44 10° NNW 01:46:49 10° NNW 01:46:49 10° NNW visible
16 Sep 4.9 23:48:11 10° NNE 23:48:32 11° NNE 23:48:32 11° NNE visible
17 Sep 5.0 01:30:08 10° NNW 01:30:12 10° NNW 01:30:12 10° NNW visible
17 Sep 4.9 23:31:50 10° NNE 23:31:57 10° NNE 23:31:57 10° NNE visible
18 Sep 5.0 01:13:31 10° NNW 01:13:38 11° NNW 01:13:38 11° NNW visible
19 Sep 5.0 00:56:55 10° NNW 00:57:05 11° NNW 00:57:05 11° NNW visible
20 Sep 5.0 00:40:20 10° NNW 00:40:34 11° NNW 00:40:34 11° NNW visible
21 Sep 5.0 00:23:44 10° NNW 00:24:05 12° NNW 00:24:05 12° NNW visible
22 Sep 5.0 00:07:09 10° NNW 00:07:37 12° NNW 00:07:37 12° NNW visible
22 Sep 4.9 23:50:34 10° NNW 23:51:10 13° N 23:51:10 13° N visible
23 Sep 4.8 23:34:00 10° NNW 23:34:45 14° N 23:34:45 14° N visible
24 Sep 4.7 23:17:26 10° N 23:18:20 15° N 23:18:20 15° N visible
25 Sep 4.6 23:00:52 10° N 23:01:58 15° N 23:01:58 15° N visible
